Location: La Brionne
(46.1728°N, 1.7849°E)
Time: 20:53:46
(UTC+00:00)

Daily predictions for brighter satellites

Satellite Brightness Start Highest point End
(mag) Time Altitude Azimuth Time Altitude Azimuth Time Altitude Azimuth
Cosmos 1980 Rocket 3.3 20:19:47 10° SW 20:25:16 51° WNW 20:30:45 10° NNE
Cosmos 1315 Rocket 3.0 20:21:37 10° N 20:25:44 63° ENE 20:29:49 10° SSE
Cosmos 1674 4.3 20:23:11 10° SE 20:25:48 18° E 20:28:25 10° NE
USA 81 4.4 20:21:56 10° N 20:27:03 48° E 20:32:08 10° SSE
Okean 1 Rocket 3.1 20:25:26 10° N 20:29:49 79° E 20:34:12 10° SSE
Cosmos 1455 Rocket 4.2 20:28:58 10° NNE 20:32:52 29° ENE 20:36:45 10° SE
Cosmos 1727 Rocket 4.3 20:28:28 10° SSE 20:34:33 53° E 20:40:37 10° NNE
Cosmos 1605 Rocket 4.2 20:32:33 10° N 20:39:01 85° W 20:45:23 10° S
Cosmos 1378 Rocket 3.9 20:35:55 10° SSW 20:40:14 69° W 20:44:38 10° N
Cosmos 220 Rocket 4.2 20:36:50 10° SSW 20:41:09 77° WNW 20:45:26 10° NNE
Meteor 2-10 4.5 20:36:17 10° NNW 20:41:16 61° W 20:46:18 10° S
OBJECT-B 3.7 20:40:17 10° WSW 20:41:50 13° W 20:43:22 10° WNW
Cosmos 1726 2.2 20:38:15 10° NNW 20:41:54 74° W 20:45:30 10° S
BREEZE-M DEB (TANK) 2.8 20:39:55 10° SSW 20:42:08 35° SE 20:45:50 10° ENE
Cosmos 1844 Rocket 3.6 20:37:01 10° NNW 20:42:19 38° NE 20:47:35 10° ESE
Cosmos 2285 Rocket 4.1 20:37:40 10° SSW 20:44:07 85° ESE 20:50:36 10° NNE
Cosmos 1758 3.3 20:40:08 10° N 20:44:07 74° E 20:48:04 10° SSE
Okean 2 3.7 20:41:47 10° SSW 20:45:51 68° W 20:49:56 10° N
Meteor 2-20 4.4 20:42:42 10° S 20:48:48 82° E 20:54:56 10° N
Cosmos 292 Rocket 3.8 20:44:57 10° SSW 20:49:47 81° ESE 20:54:38 10° NNE
Cosmos 1908 4.2 20:47:52 10° N 20:51:25 33° ENE 20:54:25 13° SE
Lacrosse 5 rocket 2.5 20:50:56 10° S 20:53:31 18° SE 20:56:02 10° E
Cosmos 2263 Rocket 3.2 20:49:54 10° NW 20:55:16 44° WSW 21:00:37 10° S
SPOT 5 3.5 20:53:08 12° SE 20:57:43 46° ENE 21:02:26 10° N
Cosmos 1707 3.0 20:55:42 10° SSW 20:59:32 70° W 21:03:27 10° N
Cosmos 1452 Rocket 3.5 20:56:12 10° SSW 21:01:28 76° ESE 21:06:45 10° NNE
In-Cosmos 22 4.0 21:02:02 10° S 21:07:19 84° E 21:12:38 10° NNE
Resurs 01 Rocket 3.0 21:05:21 10° SSW 21:09:22 34° W 21:13:25 10° NNW
Cosmos 1459 Rocket 4.1 21:03:24 10° N 21:09:25 62° ENE 21:14:34 14° SSE
Terra 2.5 21:06:08 14° SE 21:09:48 41° ENE 21:14:17 10° N
SPOT 1/Viking Rocket 3.8 21:05:16 10° S 21:10:23 68° WSW 21:15:32 10° NNW
Cosmos 1850 Rocket 4.0 21:06:11 10° NNW 21:11:32 85° ENE 21:15:54 15° SSE
Cosmos 1953 2.4 21:08:01 10° N 21:12:04 66° E 21:15:10 16° SSE
Lacrosse 5 2.5 21:07:22 10° WNW 21:12:13 46° SW 21:16:06 15° SSE
Cosmos 2333 Rocket 3.3 21:09:00 14° SSE 21:12:42 26° ESE 21:17:23 10° NE
Cosmos 1025 Rocket 3.6 21:10:01 15° SSE 21:13:18 41° E 21:17:26 10° NNE
CARTOSAT-1 3.5 21:10:58 14° SSE 21:14:41 89° ENE 21:19:02 10° NNW
USA 245 4.3 21:11:38 10° S 21:16:08 67° W 21:21:45 10° NNW
NOSS 3-2 (C) 4.1 21:12:00 10° SW 21:17:36 60° NW 21:24:08 10° NE
Geosat 4.0 21:15:06 16° SSE 21:19:13 83° WSW 21:24:17 10° NNW
SL-14 R/B 4.4 21:17:36 18° SE 21:19:44 29° E 21:23:16 10° NNE
FALCON 9 DEB 3.1 21:17:46 10° SW 21:21:07 54° SE 21:24:28 10° ENE
Spot 2 Rocket 3.6 21:17:52 13° S 21:22:25 74° WSW 21:27:31 10° NNW
Cosmos 1975 Rocket 3.1 21:18:48 10° S 21:23:09 83° W 21:27:34 10° N
ATLAS 3B R/B 3.2 21:18:28 10° S 21:24:17 36° ESE 21:30:16 10° NE
Cosmos 2061 Rocket 4.4 21:18:40 10° N 21:24:58 53° ENE 21:29:43 18° SSE
Cosmos 1844 3.8 21:20:40 10° NNW 21:26:13 65° ENE 21:30:18 19° SE
Cosmos 1331 Rocket 4.1 21:22:21 10° S 21:27:29 58° ESE 21:32:39 10° NNE
Cosmos 2219 Rocket 3.1 21:24:39 17° SSE 21:27:52 29° ESE 21:32:42 10° NE
Cosmos 1461 2.8 21:24:08 10° NW 21:28:23 80° NE 21:30:58 22° SE
Meteor 2-11 Rocket 4.4 21:22:27 10° N 21:28:37 77° E 21:33:25 17° SSE
ERS-1 Rocket 3.0 21:24:38 17° SSE 21:28:37 87° ENE 21:33:42 10° NNW
Cosmos 1626 2.2 21:27:13 20° S 21:29:37 57° E 21:33:15 10° NNE
Aureole 1 Rocket 4.1 21:28:57 10° NNW 21:34:43 87° ENE 21:40:17 18° SSE
SL-8 R/B 3.6 21:33:20 10° WNW 21:38:09 86° SSW 21:41:58 16° ESE
BREEZE-M DEB (TANK) 2.0 21:35:22 10° WNW 21:38:34 55° SW 21:39:07 39° SSE
Cosmos 2123 Rocket 4.1 21:34:03 16° SSE 21:39:00 60° E 21:45:14 10° NNE
BREEZE-M DEB (TANK) 1.8 21:37:20 10° SW 21:39:45 53° SE 21:44:22 10° ENE
KORONAS-FOTON 4.4 21:36:36 10° SSW 21:40:20 56° WNW 21:44:05 10° N
Cosmos 2237 Rocket 4.1 21:42:21 11° ESE 21:43:20 11° E 21:44:53 10° E
ATLAS CENTAUR R/B 2.2 21:39:16 10° NNW 21:43:27 47° NE 21:46:25 19° ESE
Cosmos 1302 Rocket 4.5 21:42:29 21° SSE 21:45:37 43° ESE 21:50:34 10° NE
USA 215 3.5 21:39:29 10° ENE 21:45:40 43° SE 21:51:50 10° SSW
ARIANE 5 R/B 3.5 21:43:35 15° SSW 21:47:05 45° W 21:51:24 10° NNW
SL-16 R/B 3.6 21:42:44 10° SW 21:48:04 41° NW 21:53:25 10° NNE
Cosmos 2233 Rocket 4.4 21:43:16 10° N 21:49:13 48° ENE 21:53:01 22° SE
Cosmos 2360 Rocket 2.3 21:43:43 10° SSW 21:49:22 80° WNW 21:55:03 10° NNE
Cosmos 2100 Rocket 4.4 21:43:06 10° NNW 21:49:25 64° W 21:54:46 14° S
Cosmos 2322 Rocket 3.2 21:45:18 10° SW 21:50:48 49° WNW 21:56:21 10° NNE
Centaur D AC-29 3.9 21:31:13 10° W 21:55:21 25° SW 21:59:44 18° S
Cosmos 1674 4.3 21:57:43 10° SW 22:01:04 31° WNW 22:04:25 10° N
Cosmos 1455 4.3 21:58:53 10° NNE 22:01:12 15° ENE 22:02:38 13° E
Cosmos 389 Rocket 4.0 21:59:44 10° NNE 22:02:33 23° ENE 22:03:30 21° E
COSMOS 2428 3.1 22:01:02 24° SSE 22:04:11 46° ESE 22:09:40 10° NE
CENTAUR R/B 4.4 21:59:30 10° W 22:05:12 35° NNW 22:11:53 10° NNE
Cosmos 1544 Rocket 4.2 22:01:26 10° NNW 22:05:48 52° W 22:08:31 21° SSW
H-2A R/B 3.4 22:02:50 10° NNE 22:06:57 84° WNW 22:09:25 23° SSW
Cosmos 2322 3.6 22:02:41 17° SSW 22:07:08 70° ESE 22:12:46 10° NNE
Cosmos 1300 2.6 22:05:18 10° N 22:09:08 87° E 22:10:36 36° S
Cosmos 2016 Rocket 4.1 22:05:50 10° NNW 22:11:53 68° W 22:16:04 21° S
ALOS 2 4.4 22:11:49 15° ESE 22:14:00 21° ENE 22:17:20 10° NNE
Cosmos 2278 Rocket 3.3 22:09:23 10° NNW 22:14:37 37° NE 22:18:27 17° ESE
Cosmos 1486 Rocket 4.5 22:12:59 10° NNW 22:18:05 51° ENE 22:20:48 26° SE
USA 267 3.8 22:13:21 10° ESE 22:19:43 57° NNE 22:26:06 10° NW
Cosmos 1346 Rocket 3.4 22:19:17 35° SE 22:20:15 42° E 22:24:03 10° NNE
Cosmos 1725 Rocket 4.2 22:17:11 10° NNW 22:23:18 65° W 22:27:17 23° S
Cosmos 1844 Rocket 3.6 22:21:00 10° NW 22:26:12 38° WSW 22:29:19 21° SSW
Meteor 2-5 Rocket 3.7 22:24:44 22° SSW 22:28:23 80° W 22:34:01 10° N
Cosmos 1340 3.6 22:26:36 20° SW 22:28:50 43° WNW 22:32:28 10° N
Cosmos 968 Rocket 3.4 22:26:05 10° NNW 22:31:14 84° ENE 22:33:31 34° SSE
Lacrosse 5 rocket 1.4 22:28:38 10° WSW 22:32:15 61° NW 22:35:49 10° NE
Cosmos 1992 Rocket 4.3 22:32:38 33° SSE 22:34:30 48° ESE 22:39:32 10° NNE
Cosmos 405 4.1 22:31:39 10° NNW 22:34:49 34° W 22:35:50 28° SW
Cosmos 1536 Rocket 4.4 22:35:24 20° SW 22:38:14 47° WNW 22:42:33 10° N
GEOS 3 Rocket 3.6 22:36:02 30° SE 22:38:47 87° SW 22:44:10 10° NW
Terra 3.5 22:45:01 15° SW 22:47:42 24° W 22:51:36 10° NW
DNEPR-1 R/B 4.0 22:45:28 10° NW 22:49:31 47° WSW 22:50:34 38° SSW
Cosmos 1980 4.1 22:50:46 34° SSE 22:52:35 45° ESE 22:57:58 10° NE
FALCON 9 DEB 3.1 22:56:14 58° ENE 22:56:14 58° ENE 22:58:51 10° ENE
Cosmos 2333 Rocket 2.9 22:51:00 10° SW 22:56:38 54° WNW 23:02:15 10° NNE
Cosmos 1943 Rocket 4.3 22:54:39 10° N 22:58:34 19° NE 23:02:28 10° E
Cosmos 2228 3.3 22:55:40 10° NNW 23:00:01 61° W 23:01:23 40° SSW
BREEZE-M DEB (TANK) 3.0 22:54:55 10° SW 23:04:30 60° SSE 23:07:38 10° ENE
Cosmos 2034 Rocket 4.5 23:00:26 10° N 23:06:26 49° ENE 23:09:25 28° SE
Okean 1-7 Rocket 4.2 23:06:13 38° SE 23:07:11 44° E 23:11:25 10° NNE
Cosmos 2219 Rocket 3.0 23:06:18 11° SW 23:11:35 48° WNW 23:17:05 10° NNE
ATLAS 3B R/B 3.3 23:08:16 10° WSW 23:14:42 55° NW 23:21:23 10° NNE
SAR-Lupe-2 4.3 23:12:08 10° NNE 23:15:32 38° E 23:15:32 38° E
Meteor 2-10 Rocket 4.2 23:12:13 10° NNW 23:17:01 42° W 23:18:55 30° SW
Cosmos 1503 Rocket 4.0 23:11:54 10° NNW 23:17:19 89° WSW 23:19:20 40° SSE
FALCON 9 DEB 3.6 23:16:35 27° W 23:17:59 51° NNW 23:21:01 10° NE
FALCON 9 DEB 3.3 23:19:50 49° WNW 23:20:24 61° NNW 23:23:31 10° NE
SL-16 R/B 3.4 23:20:20 24° ESE 23:21:34 26° ESE 23:26:09 10° NE
ATLAS CENTAUR R/B 2.9 23:18:34 10° WNW 23:22:08 24° WSW 23:22:33 24° SW
Iridium 2 4.3 23:22:59 40° WSW 23:23:45 47° W 23:27:24 10° N
Cosmos 2058 Rocket 3.0 23:20:01 10° N 23:24:29 86° W 23:25:34 52° S
Cosmos 2237 Rocket 2.1 23:24:08 38° SSW 23:26:22 76° ESE 23:32:01 10° NNE
FALCON 9 DEB 3.8 23:25:34 24° W 23:27:05 47° NNW 23:30:07 10° NE
ATLAS CENTAUR R/B 3.3 23:25:37 37° S 23:27:41 55° ESE 23:39:31 10° NE
USA 215 3.6 23:22:24 10° NE 23:28:54 68° NNW 23:35:23 10° WSW
Tsikada Rocket 4.4 23:28:42 31° SE 23:31:15 49° E 23:37:08 10° NNE
Cosmos 1867 3.9 23:26:02 10° NW 23:31:21 52° WSW 23:32:53 40° SSW
Cosmos 1726 Rocket 4.4 23:30:17 10° NNW 23:34:29 41° W 23:35:38 34° SW
Thor Agena Rocket 3.9 23:29:47 10° NNE 23:34:55 50° E 23:36:27 38° SSE
GP-B 3.9 23:31:45 10° NNE 23:35:56 39° E 23:37:02 33° ESE
Cosmos 1455 2.8 23:33:23 10° NNW 23:37:03 43° W 23:37:30 41° WSW
Cosmos 389 Rocket 4.2 23:34:27 10° NW 23:37:04 21° W 23:37:17 21° W
Cosmos 2369 Rocket 4.4 23:32:56 10° N 23:37:15 21° NE 23:41:30 10° E
Meteor 1-21 Rocket 4.2 23:39:34 38° SSW 23:41:50 83° W 23:47:35 10° N
Meteor 1-4 Rocket 2.6 23:41:12 10° N 23:44:40 58° ENE 23:44:51 57° E
COSMOS 2428 4.2 23:43:30 10° WSW 23:48:38 33° NW 23:53:49 10° NNE
NOSS 0 Rocket 4.3 23:45:22 22° SW 23:49:26 62° WNW 23:55:38 10° NNE
ALOS 2 3.2 23:49:12 38° SW 23:50:03 43° W 23:54:16 10° NNW
SJ 16-02 2.3 23:50:59 10° N 23:55:10 40° ENE 23:57:01 26° ESE
